Regional Weather Roundup
Issued by NWS Grand Forks, ND

Home | Current Version | Previous Version | Text Only | Print | Product List | Glossary Off
Versions: 1 2 3 4 5 6 7 8 9 10 11 12 13 14 15 16 17 18 19 20 21 22 23 24 25 26 27 28 29 30 31 32 33 34 35 36 37 38 39 40 41 42 43 44 45 46 47 48 49 50

000
ASUS43 KFGF 222031
RWRFGF
PRAIRIE TO PINES  WEATHER ROUNDUP
NATIONAL WEATHER SERVICE EASTERN NORTH DAKOTA/GRAND FORKS ND
300 PM CDT MON SEP 22 2014

 **SATELLITE DATA USED TO AUGMENT SKY COVER AT AUTOMATED STATIONS**
 *****  WEATHER ACROSS EASTERN NORTH DAKOTA  *****

CITY           SKY/WX    TMP DP  RH WIND       PRES   REMARKS
GRAND FORKS    SUNNY     77  48  35 SW13      30.06F
GRAND FRKS AFB SUNNY     78  45  31 SW14      30.07F
GRAND FRKS NWS   N/A     79 N/A N/A SW6         N/A
DEVILS LAKE    SUNNY     77  39  25 S8        30.03F
FARGO          SUNNY     76  46  34 S10       30.10F
WAHPETON ARPT  CLEAR     75  41  29 S9        30.12F
$$

 ***** WEATHER ACROSS CENTRAL AND WESTERN NORTH DAKOTA  *****

CITY           SKY/WX    TMP DP  RH WIND       PRES   REMARKS
BISMARCK       SUNNY     83  46  27 S17       30.00F
MINOT          SUNNY     80  44  27 SE13      29.97F
JAMESTOWN      SUNNY     76  49  38 S13       30.06F
MINOT AFB      SUNNY     78  46  32 SE18      29.96F
GARRISON         N/A     79  49  34 S10G18    29.98F
WILLISTON      SUNNY     82  42  24 SE10      29.92F
DICKINSON      SUNNY     77  48  35 SE17      29.94F
HETTINGER      MOSUNNY   78  46  32 SE15G29   29.96F
$$

 *****  OTHER AIRPORT OBSERVATIONS IN OUR AREA  *****

CITY           SKY/WX    TMP DP  RH WIND       PRES   REMARKS
WALHALLA       FAIR      77  43  29 SW9       30.02F
GRAFTON AIRPOR FAIR      77  45  31 SW9       30.04F
VALLEY CITY AR FAIR      73  46  38 S14       30.08F
CANDO          FAIR      77  41  27 S14G20    30.03F
CAVALIER APRT  FAIR      77  46  33 SW8       30.03F
GWINNER        CLEAR     75  46  35 S13       30.11F
SHEYENNE NWR     N/A     76  46  34 SW9       29.95
ROLLA            N/A     77  37  24 S15G21    30.04F
 ***** THE ABOVE OBSERVATIONS ARE NON NWS ARE NOT QUALITY
       CONTROLLED AND MAY MIS-REPORT RAIN FOR SNOW...
$$

  *****  WEATHER ACROSS NORTHERN MINNESOTA  *****

CITY           SKY/WX    TMP DP  RH WIND       PRES   REMARKS
FLAG ISLAND    SUNNY     72  45  37 W12       30.03S
WARROAD        SUNNY     73  52  46 SW12      30.06F
ROSEAU         SUNNY     75  48  38 SW9       30.06F
HALLOCK        SUNNY     77  45  31 SW12      30.04F
THF RVR FALLS  SUNNY     73  48  40 SW10      30.09F
BAUDETTE       SUNNY     73  48  41 SW12      30.07S
WASKISH        SUNNY     72  54  53 SW9G16    30.10S
CROOKSTON      SUNNY     75  48  38 S10       30.08F
STEPHEN NDAWN    N/A     75  52  43 SW10        N/A
GREENBUSH NDAW   N/A     75  52  43 SW12        N/A
$$
  *****  WEATHER ACROSS CENTRAL AND WEST MINNESOTA  *****

CITY           SKY/WX    TMP DP  RH WIND       PRES   REMARKS
FOSSTON        SUNNY     73  50  43 SW13G20   30.12F
BEMIDJI        SUNNY     72  47  41 SW7       30.12F
PARK RAPIDS    SUNNY     72  47  40 SW10      30.15F
ELBOW LAKE     FAIR      72  50  46 SW7       30.14F
WADENA         SUNNY     72  48  43 W7        30.15F
DETROIT LAKES  SUNNY     70  48  46 S8        30.15F
MOORHEAD       SUNNY     75  39  27 SW9       30.11F
FERGUS FALLS   SUNNY     73  43  33 S9        30.13F
MORRIS MN      SUNNY     75  48  38 SW8       30.15F
STAPLES        SUNNY     72  46  40 W6        30.16F
$$
  *****  WEATHER ELSEWHERE ACROSS MINNESOTA  *****

CITY           SKY/WX    TMP DP  RH WIND       PRES   REMARKS
DULUTH         MOSUNNY   71  49  45 W10       30.13F
INTRNTL FALLS  SUNNY     73  49  42 W8        30.07F
ELY            SUNNY     70  50  49 W7        30.08F
CLOQUET        SUNNY     70  46  43 SW13      30.13F
WHEATON        SUNNY     73  46  38 S9        30.14F
BRAINERD       SUNNY     70  48  45 SW7       30.16F
HIBBING        SUNNY     72  48  42 W8        30.12F
ALEXANDRIA     SUNNY     71  49  45 SW6       30.19F
SAINT CLOUD    SUNNY     73  49  42 SW12      30.19S
MINNEAPOLIS    MOSUNNY   69  49  48 SW8       30.21F
$$

  *****  WEATHER ACROSS SOUTH DAKOTA  *****

CITY           SKY/WX    TMP DP  RH WIND       PRES   REMARKS
SIOUX FALLS    PTSUNNY   72  45  37 S12       30.19F
BROOKINGS      NOT AVBL
WATERTOWN      SUNNY     73  44  35 S14       30.15F
HURON          MOSUNNY   76  47  35 S14G22    30.12F
SISSETON         N/A     76  45  33 W8        30.12F
ABERDEEN       SUNNY     76  46  34 S14G23    30.10F
MITCHELL       SUNNY     75  48  38 S12       30.15F
PIERRE         PTSUNNY   81  46  29 S23G35    30.01F
MOBRIDGE       MOSUNNY   83  50  31 SE16      29.98F
RAPID CITY     PTSUNNY   78  48  34 S20G31    29.95F
$$

  *****  SOME WEATHER IN NEARBY STATES *****

CITY           SKY/WX    TMP DP  RH WIND       PRES   REMARKS
GLASGOW MT     SUNNY     77  48  35 E7        29.87F
GREAT FALLS MT MOSUNNY   82  47  29 W5        29.90F
CHEYENNE WY    CLOUDY    65  53  65 W10       30.19F
SCOTTSBLUFF NE PTSUNNY   77  52  41 SE12      30.06F
OMAHA NE       MOSUNNY   72  49  44 SE7       30.24F
DES MOINES IA  MOSUNNY   72  49  44 CALM      30.25F
DAVENPORT IA   SUNNY     69  40  34 VRB3      30.26F
CHICAGO IL     SUNNY     62  40  44 VRB3      30.24F
EAU CLAIRE WI  SUNNY     68  50  52 W7        30.20F
LA CROSSE WI   SUNNY     72  51  47 NW7       30.21F
$$

  *****  SOME NATIONAL WEATHER *****

CITY           SKY/WX    TMP DP  RH WIND       PRES   REMARKS
LA GUARDIA NY  PTSUNNY   70  44  39 W15       29.92R
RALEIGH NC     PTSUNNY   73  52  47 VRB6      30.05S
ATLANTA GA     MOSUNNY   80  51  36 NW9G16    30.03F
NEW ORLEANS LA MOSUNNY   90  71  53 N12       29.97F HX  96
OKLAHOMA CITY  MOSUNNY   81  45  28 NE7       30.22F
ALBUQUERQUE NM MOSUNNY   78  55  44 S9        30.24F
SALT LAKE CITY PTSUNNY   73  49  42 CALM      30.13F
LOS ANGELES CA MOSUNNY   73  62  68 SW12      29.98F
BOISE ID       MOSUNNY   78  51  38 CALM      30.04F
SEATTLE WA     PTSUNNY   67  54  63 S7        30.00S
$$

*** WEATHER ACROSS MANITOBA...SASKATCHEWAN AND ONTARIO ***
                ***ONTARIO***

CITY           SKY/WX    TMP DP  RH WIND       PRES   REMARKS
GERALDTON      PTSUNNY   64  52  63 W13       29.90F
THUNDER BAY    MOSUNNY   73  48  40 W15G22    29.99F
SIOUX LOOKOUT  MOSUNNY   73  52  46 W8G21     29.96
TORONTO        PTSUNNY   59  41  51 NW13G22   30.10R
BIG TROUT LK   PTSUNNY   63  52  67 VRB5      29.86R
PICKLE LAKE    PTSUNNY   73  50  43 W15       29.85S
DRYDEN         SUNNY     73  46  38 W18G26    29.99F
KENORA         MOSUNNY   72  50  46 W12G17    30.04F
$$
                *** MANITOBA***

CITY           SKY/WX    TMP DP  RH WIND       PRES   REMARKS
BRANDON        MOSUNNY   77  45  31 SW9       30.00
DAUPHIN        SUNNY     81  41  24 SW12      29.94F
ISLAND LAKE    MOSUNNY   70  55  60 CALM      29.90R
PILOT MOUND      N/A     79  39  24 SW12        N/A
THE PAS        MOSUNNY   81  48  32 S6        29.85F
THOMPSON       MOSUNNY   63  50  63 E13       29.92R
WINNIPEG       MOSUNNY   79  45  29 SW10G17   30.00F
LYNN LAKE      SUNNY     72  50  46 E12G24    29.84F
CHURCHILL      CLOUDY    43  36  75 E10G17    30.08R
GILLAM         PTSUNNY   52  45  76 NE8       30.00R
$$
                ***SASKATCHEWAN***

CITY           SKY/WX    TMP DP  RH WIND       PRES   REMARKS
ESTEVAN        SUNNY     81  48  32 S12       29.94F
KINDERSLEY     MOSUNNY   81  50  34 S10       29.79F
LLOYDMINSTER   MOSUNNY   77  48  36 SW8       29.75
PRINCE ALBERT  SUNNY     81  46  30 SW16      29.79
REGINA         SUNNY     79  48  34 S12G21    29.89F
YORKTON        SUNNY     77  39  25 S12G17    29.92F
N. BATTLEFORD  SUNNY     84  48  28 S9        29.78F
LA RONGE       MOSUNNY   82  50  32 S13       29.74
SASKATOON      SUNNY     84  48  28 S15G22    29.81F
SWIFT CURRENT  SUNNY     81  43  26 S17G24    29.83F
$$
NOTE: THESE ARE AUTOMATED STATIONS WITH LIMITED QUALITY CONTROL
      "FAIR" INDICATES FEW OR NO CLOUDS BELOW 12,000 FEET WITH NO
      SIGNIFICANT WEATHER AND/OR OBSTRUCTIONS TO VISIBILITY.
      SKY/WX - SKY CONDITION AND SIGNIFICANT WEATHER.
      TMP - AIR TEMPERATURE.    DP   - DEWPOINT TEMPERATURE.
      RH  - RELATIVE HUMIDITY.  PRES - PRESSURE.
      HX  - HEAT INDEX.         WCI  - WIND CHILL INDEX.
$



USA.gov is the U.S. government's official web portal to all federal, state and local government web resources and services.